Time,TemperatureF,DewpointF,PressureIn,WindDirection,WindDirectionDegrees,WindSpeedMPH,WindSpeedGustMPH,Humidity,HourlyPrecipIn,Conditions,Clouds,dailyrainin,SolarRadiationWatts/m^2,SoftwareType,DateUTC
2013-06-19 00:00:00,82.2,77.2,29.88,South,180,3.0,10.0,85,0.00,,,0.00,0.00,VWS V14.00,2013-06-19 05:00:00,
2013-06-19 00:15:00,82.3,77.3,29.88,South,180,3.0,9.0,85,0.00,,,0.00,0.00,VWS V14.00,2013-06-19 05:15:00,
2013-06-19 00:30:00,82.3,77.3,29.88,South,180,3.0,11.0,85,0.00,,,0.00,0.00,VWS V14.00,2013-06-19 05:30:00,
2013-06-19 00:45:00,82.2,77.2,29.88,SSE,158,3.0,11.0,85,0.00,,,0.00,0.00,VWS V14.00,2013-06-19 05:45:00,
2013-06-19 01:00:00,82.1,77.2,29.88,SSE,158,2.0,7.0,85,0.00,,,0.00,0.00,VWS V14.00,2013-06-19 06:00:00,
2013-06-19 01:15:00,82.0,77.1,29.88,South,180,2.0,9.0,85,0.00,,,0.00,0.00,VWS V14.00,2013-06-19 06:15:00,
2013-06-19 01:30:00,82.2,76.9,29.88,South,180,3.0,13.0,84,0.00,,,0.00,0.00,VWS V14.00,2013-06-19 06:30:00,
2013-06-19 01:45:00,82.1,76.8,29.87,South,180,3.0,13.0,84,0.00,,,0.00,0.00,VWS V14.00,2013-06-19 06:45:00,
2013-06-19 02:00:00,82.1,76.8,29.87,South,180,3.0,0.0,84,0.00,,,0.00,0.00,VWS V14.00,2013-06-19 07:00:00,
2013-06-19 02:15:00,82.1,76.8,29.86,South,180,3.0,0.0,84,0.00,,,0.00,0.00,VWS V14.00,2013-06-19 07:15:00,
2013-06-19 02:30:00,82.1,76.8,29.86,South,180,3.0,0.0,84,0.00,,,0.00,0.00,VWS V14.00,2013-06-19 07:30:00,
2013-06-19 02:45:00,81.7,76.4,29.86,South,180,4.0,12.0,84,0.00,,,0.00,0.00,VWS V14.00,2013-06-19 07:45:00,
2013-06-19 03:00:00,81.6,76.7,29.86,South,180,3.0,13.0,85,0.00,,,0.00,0.00,VWS V14.00,2013-06-19 08:00:00,
2013-06-19 03:15:00,81.4,76.5,29.86,South,180,3.0,7.0,85,0.00,,,0.00,0.00,VWS V14.00,2013-06-19 08:15:00,
2013-06-19 03:30:00,81.2,76.3,29.86,South,180,2.0,6.0,85,0.00,,,0.00,0.00,VWS V14.00,2013-06-19 08:30:00,
2013-06-19 03:45:00,81.1,76.2,29.86,South,180,2.0,7.0,85,0.00,,,0.00,0.00,VWS V14.00,2013-06-19 08:45:00,
2013-06-19 04:00:00,80.8,76.2,29.86,South,180,2.0,7.0,86,0.00,,,0.00,0.00,VWS V14.00,2013-06-19 09:00:00,
2013-06-19 04:15:00,80.8,76.2,29.86,South,180,3.0,9.0,86,0.00,,,0.00,0.00,VWS V14.00,2013-06-19 09:15:00,
2013-06-19 04:30:00,80.9,76.3,29.86,South,180,3.0,13.0,86,0.00,,,0.00,0.00,VWS V14.00,2013-06-19 09:30:00,
2013-06-19 04:45:00,80.7,76.1,29.86,South,180,3.0,12.0,86,0.00,,,0.00,0.00,VWS V14.00,2013-06-19 09:45:00,
2013-06-19 05:00:00,80.7,76.1,29.86,South,180,2.0,7.0,86,0.00,,,0.00,0.00,VWS V14.00,2013-06-19 10:00:00,
2013-06-19 05:15:00,80.7,76.5,29.87,South,180,3.0,10.0,87,0.00,,,0.00,0.00,VWS V14.00,2013-06-19 10:15:00,
2013-06-19 05:30:00,80.6,76.4,29.87,SSW,202,3.0,12.0,87,0.00,,,0.00,0.00,VWS V14.00,2013-06-19 10:30:00,
2013-06-19 05:45:00,80.4,76.2,29.87,South,180,2.0,12.0,87,0.00,,,0.00,0.00,VWS V14.00,2013-06-19 10:45:00,
2013-06-19 06:00:00,80.3,76.1,29.88,SSW,202,2.0,7.0,87,0.00,,,0.00,0.00,VWS V14.00,2013-06-19 11:00:00,
2013-06-19 06:15:00,80.3,76.1,29.88,South,180,2.0,7.0,87,0.00,,,0.00,0.00,VWS V14.00,2013-06-19 11:15:00,
2013-06-19 06:30:00,80.3,76.1,29.89,South,180,2.0,6.0,87,0.00,,,0.00,0.00,VWS V14.00,2013-06-19 11:30:00,
2013-06-19 06:45:00,80.3,76.1,29.89,South,180,2.0,0.0,87,0.00,,,0.00,0.00,VWS V14.00,2013-06-19 11:45:00,
2013-06-19 07:00:00,80.7,76.5,29.89,South,180,2.0,10.0,87,0.00,,,0.00,28.00,VWS V14.00,2013-06-19 12:00:00,
2013-06-19 07:15:00,80.8,76.6,29.89,South,180,2.0,9.0,87,0.00,,,0.00,50.00,VWS V14.00,2013-06-19 12:15:00,
2013-06-19 07:30:00,81.2,76.6,29.90,South,180,2.0,7.0,86,0.00,,,0.00,106.00,VWS V14.00,2013-06-19 12:30:00,
2013-06-19 07:45:00,81.6,76.7,29.90,SSW,202,2.0,9.0,85,0.00,,,0.00,164.00,VWS V14.00,2013-06-19 12:45:00,
2013-06-19 08:00:00,82.1,76.8,29.91,South,180,3.0,11.0,84,0.00,,,0.00,221.00,VWS V14.00,2013-06-19 13:00:00,
2013-06-19 08:15:00,82.6,77.3,29.91,South,180,3.0,9.0,84,0.00,,,0.00,272.00,VWS V14.00,2013-06-19 13:15:00,
2013-06-19 08:30:00,83.2,77.1,29.91,South,180,3.0,12.0,82,0.00,,,0.00,333.00,VWS V14.00,2013-06-19 13:30:00,
2013-06-19 08:45:00,83.7,77.2,29.91,South,180,3.0,11.0,81,0.00,,,0.00,392.00,VWS V14.00,2013-06-19 13:45:00,
2013-06-19 09:00:00,83.9,77.1,29.91,SSW,202,3.0,9.0,80,0.00,,,0.00,342.00,VWS V14.00,2013-06-19 14:00:00,
2013-06-19 09:15:00,84.1,76.5,29.92,SSW,202,3.0,12.0,78,0.00,,,0.00,207.00,VWS V14.00,2013-06-19 14:15:00,
2013-06-19 09:30:00,85.0,76.6,29.92,SSW,202,4.0,12.0,76,0.00,,,0.00,494.00,VWS V14.00,2013-06-19 14:30:00,
2013-06-19 09:45:00,86.2,77.3,29.92,SSW,202,3.0,10.0,75,0.00,,,0.00,605.00,VWS V14.00,2013-06-19 14:45:00,
2013-06-19 10:00:00,86.6,77.7,29.92,SSW,202,3.0,10.0,75,0.00,,,0.00,659.00,VWS V14.00,2013-06-19 15:00:00,
2013-06-19 10:23:00,86.8,77.5,29.92,South,180,4.0,12.0,74,0.00,,,0.00,699.00,VWS V14.00,2013-06-19 15:23:00,
2013-06-19 10:30:00,87.0,77.7,29.92,South,179,2.0,11.0,74,0.00,,,0.00,751.00,VWS V14.00,2013-06-19 15:30:00,
2013-06-19 10:45:00,87.2,77.9,29.91,South,185,11.0,12.0,74,0.00,,,0.00,789.00,VWS V14.00,2013-06-19 15:45:00,
2013-06-19 11:00:00,88.0,77.8,29.92,SSW,202,4.0,12.0,72,0.00,,,0.00,829.00,VWS V14.00,2013-06-19 16:00:00,
2013-06-19 11:15:00,88.6,77.6,29.92,South,180,4.0,12.0,70,0.00,,,0.00,827.00,VWS V14.00,2013-06-19 16:15:00,
2013-06-19 11:30:00,88.8,77.8,29.92,South,180,5.0,12.0,70,0.00,,,0.00,886.00,VWS V14.00,2013-06-19 16:30:00,
2013-06-19 11:45:00,89.3,77.4,29.92,SSW,202,4.0,14.0,68,0.00,,,0.00,927.00,VWS V14.00,2013-06-19 16:45:00,
2013-06-19 12:00:00,89.6,76.7,29.92,SSW,202,6.0,15.0,66,0.00,,,0.00,940.00,VWS V14.00,2013-06-19 17:00:00,
2013-06-19 12:15:00,90.0,76.2,29.92,South,180,4.0,12.0,64,0.00,,,0.00,930.00,VWS V14.00,2013-06-19 17:15:00,
2013-06-19 12:30:00,90.4,76.1,29.91,South,180,4.0,12.0,63,0.00,,,0.00,969.00,VWS V14.00,2013-06-19 17:30:00,
2013-06-19 12:45:00,90.7,76.4,29.91,SSW,202,5.0,13.0,63,0.00,,,0.00,1029.00,VWS V14.00,2013-06-19 17:45:00,
2013-06-19 13:00:00,90.9,76.1,29.91,South,180,5.0,15.0,62,0.00,,,0.00,992.00,VWS V14.00,2013-06-19 18:00:00,
2013-06-19 13:15:00,91.0,76.2,29.90,South,180,4.0,15.0,62,0.00,,,0.00,1044.00,VWS V14.00,2013-06-19 18:15:00,
2013-06-19 13:30:00,91.0,76.2,29.90,South,180,4.0,12.0,62,0.00,,,0.00,1028.00,VWS V14.00,2013-06-19 18:30:00,
2013-06-19 13:45:00,91.3,77.9,29.90,South,180,2.0,9.0,65,0.00,,,0.00,890.00,VWS V14.00,2013-06-19 18:45:00,
2013-06-19 14:00:00,91.2,77.8,29.90,South,180,3.0,12.0,65,0.00,,,0.00,686.00,VWS V14.00,2013-06-19 19:00:00,
2013-06-19 14:15:00,90.6,76.8,29.89,South,180,3.0,10.0,64,0.00,,,0.00,894.00,VWS V14.00,2013-06-19 19:15:00,
2013-06-19 14:30:00,91.5,78.1,29.89,South,180,3.0,11.0,65,0.00,,,0.00,974.00,VWS V14.00,2013-06-19 19:30:00,
2013-06-19 14:45:00,91.6,77.2,29.89,South,180,3.0,11.0,63,0.00,,,0.00,973.00,VWS V14.00,2013-06-19 19:45:00,
2013-06-19 15:00:00,91.2,77.8,29.89,South,180,3.0,11.0,65,0.00,,,0.00,944.00,VWS V14.00,2013-06-19 20:00:00,
2013-06-19 15:15:00,90.9,78.0,29.89,East,90,4.0,11.0,66,0.00,,,0.00,900.00,VWS V14.00,2013-06-19 20:15:00,
2013-06-19 15:30:00,90.5,77.1,29.89,East,90,4.0,12.0,65,0.00,,,0.00,866.00,VWS V14.00,2013-06-19 20:30:00,
2013-06-19 15:45:00,90.4,76.1,29.88,South,180,4.0,13.0,63,0.00,,,0.00,819.00,VWS V14.00,2013-06-19 20:45:00,
2013-06-19 16:00:00,90.3,76.0,29.89,South,180,3.0,10.0,63,0.00,,,0.00,778.00,VWS V14.00,2013-06-19 21:00:00,
2013-06-19 16:15:00,90.1,76.8,29.88,South,180,4.0,12.0,65,0.00,,,0.00,740.00,VWS V14.00,2013-06-19 21:15:00,
2013-06-19 16:30:00,90.1,77.7,29.88,South,180,3.0,13.0,67,0.00,,,0.00,702.00,VWS V14.00,2013-06-19 21:30:00,
2013-06-19 16:45:00,90.2,78.2,29.88,SE,135,3.0,10.0,68,0.00,,,0.00,658.00,VWS V14.00,2013-06-19 21:45:00,
2013-06-19 17:00:00,89.2,78.1,29.88,ESE,112,4.0,13.0,70,0.00,,,0.00,613.00,VWS V14.00,2013-06-19 22:00:00,
2013-06-19 17:15:00,89.2,78.6,29.88,South,180,3.0,12.0,71,0.00,,,0.00,566.00,VWS V14.00,2013-06-19 22:15:00,
2013-06-19 17:30:00,88.3,78.6,29.87,ESE,112,4.0,10.0,73,0.00,,,0.00,518.00,VWS V14.00,2013-06-19 22:30:00,
2013-06-19 17:45:00,88.3,78.1,29.87,South,180,4.0,13.0,72,0.00,,,0.00,466.00,VWS V14.00,2013-06-19 22:45:00,
2013-06-19 18:00:00,87.8,78.1,29.87,ESE,112,4.0,11.0,73,0.00,,,0.00,419.00,VWS V14.00,2013-06-19 23:00:00,
2013-06-19 18:15:00,87.2,77.1,29.87,SE,135,4.0,16.0,72,0.00,,,0.00,367.00,VWS V14.00,2013-06-19 23:15:00,
2013-06-19 18:30:00,87.0,77.7,29.87,ESE,112,4.0,12.0,74,0.00,,,0.00,317.00,VWS V14.00,2013-06-19 23:30:00,
2013-06-19 18:45:00,86.5,77.6,29.88,ESE,112,4.0,12.0,75,0.00,,,0.00,263.00,VWS V14.00,2013-06-19 23:45:00,
2013-06-19 19:00:00,86.1,77.2,29.88,ESE,112,4.0,12.0,75,0.00,,,0.00,207.00,VWS V14.00,2013-06-20 00:00:00,
2013-06-19 19:15:00,86.1,77.7,29.89,ESE,112,3.0,10.0,76,0.00,,,0.00,157.00,VWS V14.00,2013-06-20 00:15:00,
2013-06-19 19:30:00,85.5,77.1,29.89,SE,135,3.0,10.0,76,0.00,,,0.00,110.00,VWS V14.00,2013-06-20 00:30:00,
2013-06-19 19:45:00,85.0,76.2,29.90,South,180,3.0,9.0,75,0.00,,,0.00,65.00,VWS V14.00,2013-06-20 00:45:00,
2013-06-19 20:00:00,85.0,77.4,29.90,South,180,2.0,7.0,78,0.00,,,0.00,41.00,VWS V14.00,2013-06-20 01:00:00,
2013-06-19 20:15:00,84.5,76.9,29.90,South,180,3.0,12.0,78,0.00,,,0.00,23.00,VWS V14.00,2013-06-20 01:15:00,
2013-06-19 20:30:00,84.1,76.9,29.90,SSE,158,3.0,9.0,79,0.00,,,0.00,5.00,VWS V14.00,2013-06-20 01:30:00,
2013-06-19 20:45:00,83.8,77.0,29.90,SE,135,2.0,11.0,80,0.00,,,0.00,0.00,VWS V14.00,2013-06-20 01:45:00,
2013-06-19 21:00:00,83.6,77.2,29.91,South,180,3.0,10.0,81,0.00,,,0.00,0.00,VWS V14.00,2013-06-20 02:00:00,
2013-06-19 21:15:00,83.6,77.2,29.91,South,180,3.0,11.0,81,0.00,,,0.00,0.00,VWS V14.00,2013-06-20 02:15:00,
2013-06-19 21:30:00,83.5,77.4,29.91,South,180,2.0,13.0,82,0.00,,,0.00,0.00,VWS V14.00,2013-06-20 02:30:00,
2013-06-19 21:45:00,83.3,77.2,29.92,South,180,2.0,10.0,82,0.00,,,0.00,0.00,VWS V14.00,2013-06-20 02:45:00,
2013-06-19 22:00:00,83.1,77.0,29.91,SSE,158,3.0,11.0,82,0.00,,,0.00,0.00,VWS V14.00,2013-06-20 03:00:00,
2013-06-19 22:15:00,83.1,77.0,29.92,South,180,3.0,9.0,82,0.00,,,0.00,0.00,VWS V14.00,2013-06-20 03:15:00,
2013-06-19 22:30:00,83.0,76.9,29.93,South,180,3.0,10.0,82,0.00,,,0.00,0.00,VWS V14.00,2013-06-20 03:30:00,
2013-06-19 22:45:00,83.0,76.9,29.93,South,180,3.0,10.0,82,0.00,,,0.00,0.00,VWS V14.00,2013-06-20 03:45:00,
2013-06-19 23:00:00,83.0,76.6,29.93,South,180,3.0,10.0,81,0.00,,,0.00,0.00,VWS V14.00,2013-06-20 04:00:00,
2013-06-19 23:15:00,82.9,76.8,29.93,South,180,2.0,11.0,82,0.00,,,0.00,0.00,VWS V14.00,2013-06-20 04:15:00,
2013-06-19 23:30:00,82.8,76.8,29.93,South,180,2.0,12.0,82,0.00,,,0.00,0.00,VWS V14.00,2013-06-20 04:30:00,
2013-06-19 23:45:00,82.7,76.7,29.93,South,180,3.0,12.0,82,0.00,,,0.00,0.00,VWS V14.00,2013-06-20 04:45:00,